Вернуться в каталог

STARLINK-33562

АктивенСвязьVLEO
NORAD 62102·PAYLOAD·🇺🇸 United States

Запущен Nov 25, 2024 с Cape Canaveral Space Force Station

Loading…

Ближайшие Пролёты (ближайшие 24 часа)

TLE

СвежийSource: CelesTrak SupGP

Эпоха: Sep 14, 2026, 20:53 UTC

1 62102C 24220Q   26257.87062500  .00033754  00000+0  12226-2 0  2574
2 62102  43.0006 217.0479 0001142 258.7612 153.6496 15.27560633    18

Отслеживайте STARLINK-33562 в реальном времени с AllMySat

Download on the App Store